Cloud_Cover
67 98 52 87 41 100 87 100 100 90 95 99 86 66 10 20 85 92 9 97 93 67 98 83 100 100 100 100 100 100 100 100 100 100 100 100 100 100 100 100 100 100 100
98 40 28 64 68 34 33 74 99 100 100 100 80 41 5 5 5 59 31 100 5 5 96 100 100 94 84 89 100 100 100 100 100 100 100 100 100 100 100 100 100 100 100
90 12 57 51 100 15 95 98 37 100 100 46 100 10 100 100 69 100 100 48 7 86 100 100 100 96 65 74 68 93 100 100 100 100 100 100 100 100 100 100 100 100 100
30 30 93 100 33 5 100 74 98 44 73 77 7 85 100 100 100 100 100 98 59 5 72 84 92 100 100 99 100 100 100 100 100 100 98 100 100 100 100 100 100 100 100
100 32 84 67 6 5 92 56 75 65 100 61 70 100 100 100 82 89 92 5 5 73 99 5 65 100 91 88 100 100 100 100 100 100 89 46 100 100 100 100 100 100 100
100 91 43 68 16 6 16 52 57 37 87 100 100 64 100 100 99 100 100 100 100 23 26 13 34 100 93 98 100 100 100 100 100 100 56 4 4 87 100 100 100 100 100
100 100 75 62 19 7 48 92 33 99 94 100 88 100 100 94 100 64 100 100 100 100 91 9 12 35 13 46 100 100 92 62 100 0 0 0 0 0 3 62 100 100 100
99 100 86 10 17 26 42 100 60 97 100 100 100 31 50 94 100 48 37 78 48 83 52 100 94 32 42 72 20 56 61 19 12 26 58 0 0 0 0 0 14 99 100
100 100 36 5 5 7 72 81 100 100 100 100 70 18 87 89 64 5 56 80 72 38 0 2 12 7 77 0 1 4 12 6 35 100 100 97 25 0 0 0 6 20 94
100 100 24 6 7 7 40 96 100 100 39 13 5 7 11 56 5 0 32 100 50 32 0 3 0 30 15 0 0 6 7 18 15 23 100 100 100 92 16 1 0 0 4
100 97 31 22 5 22 34 100 100 71 46 90 100 14 5 5 0 5 39 80 12 24 22 0 1 0 0 0 0 0 0 0 4 6 16 62 97 100 100 100 95 18 3
100 100 95 5 5 12 100 100 100 13 12 69 5 5 4 16 35 53 0 23 0 97 12 0 0 0 0 0 0 0 0 6 58 48 6 0 1 8 47 89 100 100 100
100 94 12 5 18 95 100 100 42 5 3 6 94 100 80 58 8 17 0 0 5 15 24 39 19 36 1 0 0 0 0 0 0 0 0 0 0 0 0 0 2 32 82
7 11 5 5 53 100 98 80 100 89 6 4 0 15 2 88 13 34 2 3 0 77 99 100 24 2 72 0 0 16 0 0 0 0 0 0 0 0 0 0 0 0 0
100 13 7 70 92 100 100 100 100 98 10 100 5 100 2 15 1 0 0 0 1 88 12 28 0 0 76 100 2 52 49 0 0 0 0 0 0 0 0 0 0 0 0
97 56 97 89 93 100 100 91 37 100 94 7 5 5 5 0 0 0 0 0 0 0 0 5 12 0 11 71 7 14 100 4 0 0 0 0 0 0 0 0 0 0 0
100 100 60 93 100 100 100 100 100 38 66 78 5 97 0 0 0 0 0 0 0 4 9 0 2 0 0 0 21 0 78 18 3 0 0 0 0 0 0 0 0 0 0
100 98 90 100 70 100 100 100 65 54 100 86 100 25 0 0 0 0 0 0 0 0 0 0 0 0 0 0 0 11 91 2 2 0 0 0 0 0 0 0 0 0 0
89 100 99 81 100 100 100 73 56 100 99 100 20 0 0 0 0 0 0 4 0 0 0 0 0 0 0 0 0 16 100 100 4 0 0 0 0 3 0 0 0 0 0
98 100 98 100 100 86 76 91 99 100 80 6 0 0 0 0 0 0 0 3 3 4 0 0 1 0 0 0 2 26 78 100 5 0 2 6 64 18 38 0 0 0 0
100 100 100 100 100 41 99 74 100 100 9 0 0 0 0 0 0 0 2 0 0 0 0 0 0 0 0 0 2 96 100 100 0 0 0 3 52 20 2 2 0 0 0
100 100 100 100 100 99 97 100 72 39 0 0 0 0 0 0 0 0 0 0 0 0 0 0 0 0 0 0 1 100 100 100 5 0 1 0 0 84 12 77 5 3 1
100 100 30 43 77 100 94 92 57 0 0 0 0 0 0 0 0 0 2 0 0 4 5 0 0 1 0 5 9 100 100 100 92 5 2 0 0 0 3 18 5 3 1
96 5 5 13 91 100 100 100 12 0 0 0 0 0 0 0 0 0 3 5 24 61 5 0 3 2 5 5 24 100 100 100 70 5 0 0 0 1 0 4 6 5 43
17 33 5 25 99 100 62 1 0 0 0 0 0 0 0 0 1 5 11 5 16 46 3 5 5 2 3 4 100 100 100 100 94 2 0 0 4 0 0 30 36 100 100
17 5 96 88 45 5 0 0 0 0 0 0 0 0 0 2 5 15 39 27 14 0 0 0 37 6 6 99 100 100 100 100 5 0 0 0 6 12 5 0 28 62 100